STARLINK-6133, 57134

Orbit data source: Space-Track

STARLINK-6133, 57134 is a payload satellite owned by SpaceX/Seattle (US) in LEO that was launched on Fri, 23 Jun 2023 UTC via an FALCON 9 launch vehicle from the Air Force Eastern Test Range (AFETR). Payload-class satellites include a variety of spacecraft equipped with specific instruments for various scientific and technological missions. These include communications satellites like Starlink; space stations such as the ISS; scientific satellites like the Hubble; Earth observation satellites from companies like Planet Labs, Umbra, and HawkEye 360; GPS; miniature CubeSats for education and research; and military/defense satellites.

Loading next visibility...
Identifier
57134, 2023-090AK
Orbit
LEO
Last TLE update
11 hours ago
Origin
Manufacturer
SpaceX/Seattle
Mission
Operational Commercial Communications
Bus & Motor
STARLINK, Unknown motor
Mass
305 kg wet, ~290 kg dry
Launch date (UTC)
2023-06-23 (2 years ago)
Launch vehicle
FALCON 9
Launch site
Air Force Eastern Test Range (AFETR)
Object type
Payload
Rocket body
Debris
Shape & HBR
Box + 1 Pan, 9 m
Radar Cross Section
11.087 m², Large (>1 m²)

Expand to show TLE details & history

TLE from 11 hours ago
0 STARLINK-6133
1 57134U 23090AK  25187.96035328 -.00000259  00000-0 -41439-5 0  9997
2 57134  43.0021 157.3387 0000827 288.4019  71.6733 15.02534357112450
Epoch: 2025-07-06T23:02Z
TLE epoch observation values (Epoch: 2025-07-06T23:02:54.523Z)
Latitude
-0.00004°
Longitude
-113.56507°
Altitude
558.682 km
Speed
7.584 km/s
True Right ascension
10h 29m 21s
True Declination
0° 00' 00"
Sunlit
Object was in daylight at epoch
Visualization orbit readout
Latitude
-36.75956°
Longitude
-168.84179°
Altitude
569.247 km
Speed
7.577 km/s
Apparent Right ascension
08h 17m 01s
Apparent Declination
-40° 34' 48"
Sunlit
Object is in daylight
Visualization observer readout
Local Sidereal Time
21:58:48
Azimuth
100.225° ESE
Elevation
-70.634°
Doppler factor
1
Orbital elements
Apogee altitude
561.582 km
Perigee altitude
560.434 km
Semi-major axis
6,939.145 km
Eccentricity
0.00008
Inclination
43.0021°
RAAN
157.3387°
Arg. of periapsis
288.4019°
True anomaly
Unknown
Mean anomaly
71.6733°
Eccentric anomaly
Unknown
Mean motion
3.75478 °/min
Orbital period
95.88 mins
BSTAR
-0.0000041439
Loading maneuver chart data...
Loading SW <> Apogee altitude chart data...
Loading historical data...
Loading historical data...
Loading historical data...
Loading historical data...
Loading historical data...
Loading historical data...
Loading historical data...

STARLINK-6133 Visibility forecast

Observer location: undefined°, undefined°

Span
Click to sort rows by Start time (UTC) header in descending order
Start Az.
Max El. time (UTC)
Max El. Az.
Max El.
End time (UTC)
End Az.
7 mins2025-07-08 00:45:47.116Z208.466° SW2025-07-08 00:48:47.116Z159.573° S27.251°2025-07-08 00:52:47.116Z85.552° E
7 mins2025-07-08 02:26:47.116Z258.338° W2025-07-08 02:29:47.116Z13.474° NNE44.35°2025-07-08 02:33:47.116Z71.487° E
6 mins2025-07-08 04:07:47.116Z288.966° WNW2025-07-08 04:10:47.116Z16.129° NNE39.227°2025-07-08 04:13:47.116Z77.878° E
6 mins2025-07-08 05:48:47.116Z286.391° WNW2025-07-08 05:51:47.116Z133.648° SE43.693°2025-07-08 05:54:47.116Z113.385° SE
5 mins2025-07-08 07:29:47.116Z252.532° W2025-07-08 07:31:47.116Z214.611° SW20.765°2025-07-08 07:34:47.116Z166.328° S
|